EDT,Max TemperatureF,Mean TemperatureF,Min TemperatureF,Max Dew PointF,MeanDew PointF,Min DewpointF,Max Humidity, Mean Humidity, Min Humidity, Max Sea Level PressureIn, Mean Sea Level PressureIn, Min Sea Level PressureIn, Max VisibilityMiles, Mean VisibilityMiles, Min VisibilityMiles, Max Wind SpeedMPH, Mean Wind SpeedMPH, Max Gust SpeedMPH,PrecipitationIn, CloudCover, Events, WindDirDegrees
2013-3-1,41,34,27,30,26,22,89,68,51,29.78,29.69,29.60,10,10,10,14,5,23,0.00,7,,303
2013-3-2,37,32,28,22,21,18,74,61,53,29.77,29.74,29.70,10,9,4,14,9,23,0.00,8,Snow,310
2013-3-3,36,31,26,20,16,13,61,56,44,29.76,29.72,29.68,10,10,10,21,11,28,0.00,6,,311
2013-3-4,37,32,27,19,17,14,66,56,46,29.92,29.81,29.75,10,10,10,20,13,32,0.00,5,,311
2013-3-5,46,38,30,25,23,19,67,57,42,30.03,29.98,29.92,10,10,10,14,9,21,0.00,3,,12
2013-3-6,42,38,33,36,29,24,89,73,59,30.01,29.95,29.91,10,9,3,23,13,38,0.01,8,Rain-Snow,38
2013-3-7,39,36,32,32,29,22,93,80,53,30.11,30.06,29.99,10,4,1,22,12,31,0.31,8,Snow,20
2013-3-8,37,34,30,34,30,26,96,90,75,30.23,30.07,30.02,10,4,0,8,3,,0.52,7,Fog-Rain-Snow,18
2013-3-9,50,34,19,27,21,14,93,74,35,30.32,30.27,30.21,10,6,0,5,0,,0.00,0,Fog,347
2013-3-10,48,34,19,32,23,16,96,73,42,30.38,30.32,30.25,10,7,0,9,1,,0.00,0,Fog,179
2013-3-11,52,41,30,45,36,27,93,81,57,30.27,30.18,30.05,10,8,4,13,3,18,0.00,5,,183
2013-3-12,55,48,39,54,47,32,94,85,68,30.02,29.78,29.65,10,8,2,21,8,31,0.69,7,Rain,214
2013-3-13,48,39,30,31,27,21,88,64,37,29.88,29.84,29.78,10,10,10,12,6,17,0.00,6,,274
2013-3-14,37,31,25,27,12,4,80,47,26,29.94,29.89,29.84,10,9,2,22,15,32,0.01,4,Snow,300
2013-3-15,41,33,27,30,18,7,76,54,38,29.95,29.83,29.70,10,10,8,15,9,31,0.00,3,Snow,256
2013-3-16,37,32,28,27,24,16,88,75,46,29.91,29.81,29.77,10,6,0,8,4,,0.03,7,Fog-Snow,217
2013-3-17,37,31,23,27,15,8,100,58,33,30.31,30.08,29.90,10,9,1,12,5,21,0.00,1,,308
2013-3-18,35,27,19,25,18,7,93,69,37,30.41,30.23,30.05,10,5,0,12,5,,0.42,3,Fog-Snow,68
2013-3-19,39,34,28,34,29,18,93,85,54,30.01,29.80,29.68,10,5,1,12,8,22,0.21,7,Rain-Snow,15
2013-3-20,41,30,21,21,18,13,85,57,35,29.85,29.82,29.77,10,10,10,18,7,33,0.00,5,,269
2013-3-21,39,32,26,21,12,8,78,47,31,29.83,29.72,29.62,10,10,10,12,5,20,0.00,7,,310
2013-3-22,37,29,21,22,17,9,72,57,44,29.86,29.77,29.70,10,10,10,15,6,23,0.00,5,,274
2013-3-23,42,37,32,21,19,16,59,50,38,29.92,29.85,29.81,10,10,10,21,12,33,0.00,6,,283
2013-3-24,46,36,28,24,21,17,69,54,40,29.93,29.83,29.72,10,10,10,12,7,16,0.00,0,,341
2013-3-25,46,38,32,25,24,22,69,56,40,29.71,29.59,29.46,10,10,10,16,9,47,0.00,6,,33
2013-3-26,51,40,30,29,25,22,82,56,37,29.85,29.73,29.60,10,10,10,16,5,23,0.00,5,,313
2013-3-27,52,42,34,27,24,20,65,51,31,29.97,29.89,29.85,10,10,10,15,10,25,0.00,2,,300
2013-3-28,50,42,35,31,28,26,72,58,48,30.10,30.01,29.95,10,10,10,12,7,18,0.00,7,,319
2013-3-29,53,44,32,28,27,25,79,52,36,30.13,30.11,30.06,10,10,10,14,8,22,0.00,4,,308
2013-3-30,57,44,32,28,24,17,75,50,22,30.14,30.10,30.05,10,10,10,12,8,18,0.00,2,,303
2013-3-31,55,40,26,41,31,21,93,70,30,30.12,29.90,29.69,10,9,3,21,4,30,0.16,5,Rain,126